Hourly Data Report for October 23, 2014

All times are specified in Local Standard Time (LST). Add 1 hour to adjust for Daylight Saving Time where and when it is observed.

HALL BEACH A
NUNAVUT

68°46'33.000" N
81°14'33.000" W
9.10 m
2402354
71293
YUX

Download Data

Hourly Data (October 2014)
Hourly Data Report for October 23, 2014
Temp Definition
°C
Dew Point Temp Definition
°C
Rel Hum Definition
%
Wind Dir Definition
10's deg

Wind Spd Definition
km/h
Visibility Definition
km
Stn Press Definition
kPa
Hmdx Definition


Wind Chill Definition


Weather Definition


TIME
00:00 Legend Double Dagger -22.4 -25.0 80 31 35 16.1 101.60   -37 LegendNANA
01:00 Legend Double Dagger -21.7 -24.1 81 33 32 11.3 101.64   -35 LegendNANA
02:00 Legend Double Dagger -21.5 -23.8 82 31 21 16.1 101.70   -33 LegendNANA
03:00 Legend Double Dagger -20.1 -22.6 81 33 39 9.7 101.71   -34 Fog
04:00 Legend Double Dagger -21.6 -23.9 82 31 30 16.1 101.74   -35 LegendNANA
05:00 Legend Double Dagger -18.6 -20.5 85 31 24 16.1 101.80   -30 LegendNANA
06:00 Legend Double Dagger -17.4 -19.4 85 30 43 4.8 101.77   -31 Fog
07:00 Legend Double Dagger -17.4 -19.4 85 30 43 8.1 101.77   -31 Fog
08:00 Legend Double Dagger -17.0 -18.8 86 30 46 2.8 101.78   -31 Fog
09:00 Legend Double Dagger -16.0 -17.7 87 30 50 1.2 101.75   -30 Snow,Blowing Snow
10:00 Legend Double Dagger -16.0 -17.6 88 30 46 0.8 101.77   -30 Moderate Snow,Blowing Snow
11:00 Legend Double Dagger -15.5 -17.2 87 29 45 2.0 101.77   -29 Snow,Blowing Snow
12:00 Legend Double Dagger -14.9 -16.8 86 29 43 4.8 101.79   -28 Fog
13:00 Legend Double Dagger -15.0 -16.7 87 30 52 1.0 101.76   -29 Snow,Blowing Snow
14:00 Legend Double Dagger -15.3 -17.4 84 33 50 1.6 101.83   -29 Snow,Blowing Snow
15:00 Legend Double Dagger -15.2 -17.0 86 32 35 11.3 101.90   -27 LegendNANA
16:00 Legend Double Dagger -14.9 -16.5 88 31 41 4.0 101.93   -27 Fog
17:00 Legend Double Dagger -14.4 -16.3 86 32 41 8.1 101.94   -27 Fog
18:00 Legend Double Dagger -14.7 -16.6 86 30 43 6.4 101.97   -27 Fog
19:00 Legend Double Dagger -14.7 -16.6 86 30 35 16.1 102.06   -26 LegendNANA
20:00 Legend Double Dagger -15.1 -16.8 87 30 37 14.5 102.08   -27 LegendNANA
21:00 Legend Double Dagger -15.8 -17.5 87 31 43 4.8 102.05   -29 Fog
22:00 Legend Double Dagger -15.5 -17.3 86 30 41 6.4 102.07   -28 Snow
23:00 Legend Double Dagger -15.5 -17.2 87 29 37 12.9 102.13   -28 LegendNANA

Notes on Data Quality.

Legend

  • E = Estimated
  • M = Missing
  • NA = Not Available
  • ‡ = Partner data that is not subject to review by the National Climate Archives
Date modified: